Location: Katowice
(50.2611°N, 19.0242°E)
Time: 10:09:57
(UTC+02:00)

A-11 Canister half - Pass Details

Date: 30 July 2019
Orbit: 1526 x 1682 km, 47.3° (Epoch: 25 August)

Event Time Altitude Azimuth Distance (km) Brightness Sun altitude
Rises 23:02:01 0° 278° (W) 4,914 12.2 -17.3°
Reaches altitude 10° 23:05:14 10° 276° (W) 3,911 11.5 -17.5°
Maximum altitude 23:15:05 67° 197° (SSW) 1,737 9.0 -18.2°
Enters shadow 23:23:22 15° 119° (ESE) 3,402 10.4 -18.7°
Drops below altitude 10° 23:24:37 10° 118° (ESE) 3,785 - -18.8°
Sets 23:27:40 0° 116° (ESE) 4,748 - -18.9°
